Regional Weather Roundup
Issued by NWS

Home | Current Version | Previous Version | Text Only | Print | Product List | Glossary On
Versions: 1 2 3 4 5 6 7 8 9 10 11 12 13 14 15 16 17 18 19 20 21 22 23 24 25 26 27 28 29 30 31 32 33 34 35 36 37 38 39 40 41 42 43 44 45 46 47 48
000
ASUS45 KREV 282210
RWRNV
NEVADA REGIONAL WEATHER ROUNDUP
NATIONAL WEATHER SERVICE RENO NV
300 PM PDT TUE JUL 28 2015

NOTE: "FAIR" INDICATES FEW OR NO CLOUDS BELOW 12,000 FEET WITH NO
SIGNIFICANT WEATHER AND/OR OBSTRUCTIONS TO VISIBILITY.

NVZ001-003-004-282300-
WESTERN NEVADA

CITY           SKY/WX    TMP DP  RH WIND       PRES   REMARKS
RENO           SUNNY     84  24  11 E7        30.14F
CARSON CITY    FAIR      84  21  10 NE9G18    30.16F
SLIDE MTN        N/A     57  32  38 E8          N/A
PYRAMID LAKE     N/A     75 N/A N/A N8          N/A
FALLON         SUNNY     86  24  10 N8        30.12F
LOVELOCK       SUNNY     85  25  11 CALM      30.13F
HAWTHORNE      SUNNY     82  27  13 W3        30.13F
$$

NVZ002-CAZ072-073-282300-
NORTHERN AND CENTRAL SIERRA

CITY           SKY/WX    TMP DP  RH WIND       PRES   REMARKS
S. LAKE TAHOE  SUNNY     77  30  17 VRB5      30.23F
TRUCKEE        SUNNY     79  28  15 SW8       30.23S
SQUAW VLY 8000   N/A     66  32  28 CALM        N/A
SUSANVILLE     SUNNY     84  23  10 E10       30.15F
BLUE CANYON    SUNNY     82  27  13 VRB3      30.16F
MAMMOTH LAKES  FAIR      79  25  13 SE9       30.26F
BRIDGEPORT     FAIR      79  28  15 VRB7      30.22F
$$

NVZ030-031-036-282300-
NORTHERN NEVADA

CITY           SKY/WX    TMP DP  RH WIND       PRES   REMARKS
ELKO           SUNNY     78   8   7 N3        30.23F
WINNEMUCCA     SUNNY     81  17   9 N10G21    30.19F
WENDOVER       SUNNY     75  27  16 SE8       30.23F
$$

NVZ035-037-282300-
CENTRAL NEVADA

CITY           SKY/WX    TMP DP  RH WIND       PRES   REMARKS
ELY            SUNNY     80  24  12 N9        30.23F
EUREKA           N/A     79  21  11 VRB7      30.23F
$$

NVZ013-014-282300-
SOUTH CENTRAL NEVADA

CITY           SKY/WX    TMP DP  RH WIND       PRES   REMARKS
TONOPAH        SUNNY     85  18   8 CALM      30.16F
$$

NVZ017-020-022-282300-
SOUTHERN NEVADA

CITY           SKY/WX    TMP DP  RH WIND       PRES   REMARKS
LAS VEGAS      SUNNY    101  27   7 NE8       29.87F
N. LAS VEGAS   SUNNY    100  31   9 SE9       29.90F
NELLIS AFB     SUNNY     99  29   8 S6        29.87F
HENDERSON      SUNNY     98  33  10 VRB7      29.94F
MERCURY        SUNNY     96  25   8 VRB3      29.98F
$$


USA.gov is the U.S. government's official web portal to all federal, state and local government web resources and services.